Time,TemperatureF,DewpointF,PressureIn,WindDirection,WindDirectionDegrees,WindSpeedMPH,WindSpeedGustMPH,Humidity,HourlyPrecipIn,Conditions,Clouds,dailyrainin,SolarRadiationWatts/m^2,SoftwareType,DateUTC
2013-05-06 00:10:00,52.2,44.5,30.09,SSE,154,0.0,0.0,75,0.00,,,0.00,0,Wunderground v.1.15,2013-05-06 04:10:00,
2013-05-06 00:20:00,52.0,45.4,30.09,SSE,154,0.0,0.0,78,0.00,,,0.00,0,Wunderground v.1.15,2013-05-06 04:20:00,
2013-05-06 00:30:00,51.0,45.7,30.09,SSE,154,0.0,0.0,82,0.00,,,0.00,0,Wunderground v.1.15,2013-05-06 04:30:00,
2013-05-06 00:39:00,50.9,45.9,30.09,SSE,154,0.0,0.0,83,0.00,,,0.00,0,Wunderground v.1.15,2013-05-06 04:39:00,
2013-05-06 00:49:00,50.2,45.6,30.09,SSE,154,1.0,2.0,84,0.00,,,0.00,0,Wunderground v.1.15,2013-05-06 04:49:00,
2013-05-06 00:59:00,49.2,44.9,30.09,SSE,151,3.0,3.0,85,0.00,,,0.00,0,Wunderground v.1.15,2013-05-06 04:59:00,
2013-05-06 01:10:00,49.2,45.5,30.09,SSE,161,3.0,3.0,87,0.00,,,0.00,0,Wunderground v.1.15,2013-05-06 05:10:00,
2013-05-06 01:20:00,50.5,45.5,30.09,SSE,156,3.0,3.0,83,0.00,,,0.00,0,Wunderground v.1.15,2013-05-06 05:20:00,
2013-05-06 01:30:00,51.2,45.6,30.09,South,174,3.0,4.0,81,0.00,,,0.00,0,Wunderground v.1.15,2013-05-06 05:30:00,
2013-05-06 01:40:00,51.8,45.8,30.09,SSW,198,4.0,5.0,80,0.00,,,0.00,0,Wunderground v.1.15,2013-05-06 05:40:00,
2013-05-06 01:50:00,52.6,45.2,30.09,South,186,5.0,5.0,76,0.00,,,0.00,0,Wunderground v.1.15,2013-05-06 05:50:00,
2013-05-06 02:00:00,52.4,45.1,30.08,South,177,4.0,5.0,76,0.00,,,0.00,0,Wunderground v.1.15,2013-05-06 06:00:00,
2013-05-06 02:10:00,52.2,44.9,30.08,South,185,5.0,5.0,76,0.00,,,0.00,0,Wunderground v.1.15,2013-05-06 06:10:00,
2013-05-06 02:20:00,52.4,44.4,30.08,South,189,5.0,5.0,74,0.00,,,0.00,0,Wunderground v.1.15,2013-05-06 06:20:00,
2013-05-06 02:30:00,51.3,44.0,30.09,South,173,4.0,5.0,76,0.00,,,0.00,0,Wunderground v.1.15,2013-05-06 06:30:00,
2013-05-06 02:40:00,51.5,43.8,30.09,South,173,4.0,4.0,75,0.00,,,0.00,0,Wunderground v.1.15,2013-05-06 06:40:00,
2013-05-06 02:50:00,51.8,43.8,30.09,South,177,4.0,5.0,74,0.00,,,0.00,0,Wunderground v.1.15,2013-05-06 06:50:00,
2013-05-06 03:00:00,51.8,43.4,30.09,South,171,5.0,5.0,73,0.00,,,0.00,0,Wunderground v.1.15,2013-05-06 07:00:00,
2013-05-06 03:10:00,51.9,43.2,30.09,South,177,5.0,5.0,72,0.00,,,0.00,0,Wunderground v.1.15,2013-05-06 07:10:00,
2013-05-06 03:20:00,51.6,42.9,30.09,South,177,4.0,4.0,72,0.00,,,0.00,0,Wunderground v.1.15,2013-05-06 07:20:00,
2013-05-06 03:30:00,51.3,42.6,30.09,South,169,4.0,4.0,72,0.00,,,0.00,0,Wunderground v.1.15,2013-05-06 07:30:00,
2013-05-06 03:40:00,50.3,42.7,30.09,SSE,162,4.0,4.0,75,0.00,,,0.00,0,Wunderground v.1.15,2013-05-06 07:40:00,
2013-05-06 03:49:00,50.6,42.6,30.09,South,171,4.0,4.0,74,0.00,,,0.00,0,Wunderground v.1.15,2013-05-06 07:49:00,
2013-05-06 04:00:00,48.8,42.2,30.09,SSE,167,2.0,3.0,78,0.00,,,0.00,0,Wunderground v.1.15,2013-05-06 08:00:00,
2013-05-06 04:10:00,49.2,41.6,30.10,SSE,162,3.0,3.0,75,0.00,,,0.00,0,Wunderground v.1.15,2013-05-06 08:10:00,
2013-05-06 04:20:00,49.5,41.6,30.10,SSE,165,3.0,3.0,74,0.00,,,0.00,0,Wunderground v.1.15,2013-05-06 08:20:00,
2013-05-06 04:30:00,49.1,41.5,30.10,South,170,4.0,4.0,75,0.00,,,0.00,0,Wunderground v.1.15,2013-05-06 08:30:00,
2013-05-06 04:40:00,49.3,41.0,30.10,SSE,162,3.0,3.0,73,0.00,,,0.00,0,Wunderground v.1.15,2013-05-06 08:40:00,
2013-05-06 04:50:00,49.5,40.8,30.10,SSE,165,3.0,3.0,72,0.00,,,0.00,0,Wunderground v.1.15,2013-05-06 08:50:00,
2013-05-06 05:00:00,48.8,40.9,30.10,South,173,2.0,3.0,74,0.00,,,0.00,0,Wunderground v.1.15,2013-05-06 09:00:00,
2013-05-06 05:10:00,48.9,40.3,30.11,South,191,3.0,4.0,72,0.00,,,0.00,0,Wunderground v.1.15,2013-05-06 09:10:00,
2013-05-06 05:20:00,49.6,40.2,30.11,South,176,4.0,4.0,70,0.00,,,0.00,0,Wunderground v.1.15,2013-05-06 09:20:00,
2013-05-06 05:30:00,49.0,40.4,30.11,South,178,4.0,4.0,72,0.00,,,0.00,0,Wunderground v.1.15,2013-05-06 09:30:00,
2013-05-06 05:40:00,48.1,40.2,30.11,South,170,3.0,3.0,74,0.00,,,0.00,0,Wunderground v.1.15,2013-05-06 09:40:00,
2013-05-06 05:50:00,47.9,40.4,30.11,SSE,167,2.0,2.0,75,0.00,,,0.00,0,Wunderground v.1.15,2013-05-06 09:50:00,
2013-05-06 06:00:00,47.8,40.3,30.11,South,169,2.0,2.0,75,0.00,,,0.00,7,Wunderground v.1.15,2013-05-06 10:00:00,
2013-05-06 06:10:00,47.8,40.6,30.12,South,184,4.0,5.0,76,0.00,,,0.00,12,Wunderground v.1.15,2013-05-06 10:10:00,
2013-05-06 06:20:00,48.7,40.8,30.12,South,180,5.0,5.0,74,0.00,,,0.00,18,Wunderground v.1.15,2013-05-06 10:20:00,
2013-05-06 06:30:00,48.8,40.9,30.12,South,178,4.0,4.0,74,0.00,,,0.00,25,Wunderground v.1.15,2013-05-06 10:30:00,
2013-05-06 06:40:00,49.6,40.6,30.13,SSW,192,3.0,3.0,71,0.00,,,0.00,42,Wunderground v.1.15,2013-05-06 10:40:00,
2013-05-06 06:50:00,50.6,41.2,30.13,South,188,3.0,3.0,70,0.00,,,0.00,69,Wunderground v.1.15,2013-05-06 10:50:00,
2013-05-06 07:00:00,51.4,41.9,30.13,SSW,195,2.0,3.0,70,0.00,,,0.00,98,Wunderground v.1.15,2013-05-06 11:00:00,
2013-05-06 07:10:00,52.4,41.8,30.13,South,191,2.0,2.0,67,0.00,,,0.00,137,Wunderground v.1.15,2013-05-06 11:10:00,
2013-05-06 07:20:00,53.3,41.8,30.13,South,182,2.0,2.0,65,0.00,,,0.00,181,Wunderground v.1.15,2013-05-06 11:20:00,
2013-05-06 07:30:00,54.5,41.7,30.13,SSE,160,2.0,2.0,62,0.00,,,0.00,225,Wunderground v.1.15,2013-05-06 11:30:00,
2013-05-06 07:40:00,56.0,41.0,30.14,SSW,196,3.0,6.0,57,0.00,,,0.00,265,Wunderground v.1.15,2013-05-06 11:40:00,
2013-05-06 07:50:00,56.6,42.0,30.14,SSE,159,5.0,5.0,58,0.00,,,0.00,302,Wunderground v.1.15,2013-05-06 11:50:00,
2013-05-06 08:00:00,56.8,41.7,30.14,SSW,197,5.0,5.0,57,0.00,,,0.00,339,Wunderground v.1.15,2013-05-06 12:00:00,
2013-05-06 08:10:00,57.2,43.0,30.14,South,177,6.0,7.0,59,0.00,,,0.00,374,Wunderground v.1.15,2013-05-06 12:10:00,
2013-05-06 08:20:00,58.1,42.0,30.14,SSW,194,5.0,5.0,55,0.00,,,0.00,408,Wunderground v.1.15,2013-05-06 12:20:00,
2013-05-06 08:30:00,58.6,41.0,30.14,South,190,5.0,5.0,52,0.00,,,0.00,448,Wunderground v.1.15,2013-05-06 12:30:00,
2013-05-06 08:40:00,59.5,41.3,30.14,SSW,202,6.0,7.0,51,0.00,,,0.00,483,Wunderground v.1.15,2013-05-06 12:40:00,
2013-05-06 08:50:00,60.0,42.8,30.14,SE,144,6.0,6.0,53,0.00,,,0.00,522,Wunderground v.1.15,2013-05-06 12:50:00,
2013-05-06 09:00:00,60.2,41.5,30.15,SSW,198,7.0,7.0,50,0.00,,,0.00,555,Wunderground v.1.15,2013-05-06 13:00:00,
2013-05-06 09:10:00,60.8,39.9,30.14,SSE,165,6.0,8.0,46,0.00,,,0.00,591,Wunderground v.1.15,2013-05-06 13:10:00,
2013-05-06 09:20:00,62.1,41.1,30.14,SE,142,7.0,10.0,46,0.00,,,0.00,624,Wunderground v.1.15,2013-05-06 13:20:00,
2013-05-06 09:30:00,62.6,38.6,30.14,South,175,6.0,8.0,41,0.00,,,0.00,656,Wunderground v.1.15,2013-05-06 13:30:00,
2013-05-06 09:40:00,63.1,39.0,30.14,South,181,8.0,9.0,41,0.00,,,0.00,689,Wunderground v.1.15,2013-05-06 13:40:00,
2013-05-06 09:50:00,63.8,40.3,30.14,SSE,153,7.0,11.0,42,0.00,,,0.00,721,Wunderground v.1.15,2013-05-06 13:50:00,
2013-05-06 10:00:00,64.2,42.4,30.14,SSW,199,6.0,6.0,45,0.00,,,0.00,749,Wunderground v.1.15,2013-05-06 14:00:00,
2013-05-06 10:10:00,64.4,41.4,30.14,SE,146,6.0,6.0,43,0.00,,,0.00,777,Wunderground v.1.15,2013-05-06 14:10:00,
2013-05-06 10:20:00,65.2,40.9,30.14,SSE,160,8.0,9.0,41,0.00,,,0.00,807,Wunderground v.1.15,2013-05-06 14:20:00,
2013-05-06 10:30:00,65.4,38.4,30.14,SSE,148,7.0,7.0,37,0.00,,,0.00,831,Wunderground v.1.15,2013-05-06 14:30:00,
2013-05-06 10:40:00,66.2,40.5,30.14,SE,140,6.0,7.0,39,0.00,,,0.00,853,Wunderground v.1.15,2013-05-06 14:40:00,
2013-05-06 10:50:00,66.2,39.8,30.14,SSE,168,7.0,7.0,38,0.00,,,0.00,877,Wunderground v.1.15,2013-05-06 14:50:00,
2013-05-06 11:00:00,67.0,41.2,30.13,SSE,163,5.0,5.0,39,0.00,,,0.00,898,Wunderground v.1.15,2013-05-06 15:00:00,
2013-05-06 11:10:00,67.7,39.8,30.13,ESE,107,6.0,7.0,36,0.00,,,0.00,921,Wunderground v.1.15,2013-05-06 15:10:00,
2013-05-06 11:20:00,67.7,39.0,30.13,South,173,6.0,6.0,35,0.00,,,0.00,940,Wunderground v.1.15,2013-05-06 15:20:00,
2013-05-06 11:30:00,68.6,41.3,30.13,South,182,6.0,8.0,37,0.00,,,0.00,960,Wunderground v.1.15,2013-05-06 15:30:00,
2013-05-06 11:40:00,68.3,43.7,30.12,South,174,5.0,12.0,41,0.00,,,0.00,970,Wunderground v.1.15,2013-05-06 15:40:00,
2013-05-06 11:50:00,69.1,43.1,30.12,SE,142,7.0,7.0,39,0.00,,,0.00,983,Wunderground v.1.15,2013-05-06 15:50:00,
2013-05-06 12:00:00,69.7,45.6,30.12,SE,126,6.0,7.0,42,0.00,,,0.00,997,Wunderground v.1.15,2013-05-06 16:00:00,
2013-05-06 12:09:00,69.2,43.2,30.11,SSE,150,6.0,10.0,39,0.00,,,0.00,1005,Wunderground v.1.15,2013-05-06 16:09:00,
2013-05-06 12:19:00,68.7,43.4,30.11,ESE,117,6.0,6.0,40,0.00,,,0.00,1018,Wunderground v.1.15,2013-05-06 16:19:00,
2013-05-06 12:30:00,70.1,41.9,30.11,SE,125,3.0,3.0,36,0.00,,,0.00,1020,Wunderground v.1.15,2013-05-06 16:30:00,
2013-05-06 12:40:00,70.3,43.5,30.10,SE,146,5.0,5.0,38,0.00,,,0.00,1032,Wunderground v.1.15,2013-05-06 16:40:00,
2013-05-06 12:50:00,70.7,42.4,30.10,SSE,151,6.0,6.0,36,0.00,,,0.00,1004,Wunderground v.1.15,2013-05-06 16:50:00,
2013-05-06 13:00:00,70.9,42.6,30.10,South,182,5.0,7.0,36,0.00,,,0.00,1032,Wunderground v.1.15,2013-05-06 17:00:00,
2013-05-06 13:10:00,71.1,41.3,30.09,SE,144,5.0,12.0,34,0.00,,,0.00,1032,Wunderground v.1.15,2013-05-06 17:10:00,
2013-05-06 13:20:00,71.2,43.6,30.09,SE,140,6.0,6.0,37,0.00,,,0.00,1025,Wunderground v.1.15,2013-05-06 17:20:00,
2013-05-06 13:30:00,71.7,44.0,30.09,SSE,158,4.0,6.0,37,0.00,,,0.00,1025,Wunderground v.1.15,2013-05-06 17:30:00,
2013-05-06 13:40:00,72.0,39.7,30.08,South,169,6.0,6.0,31,0.00,,,0.00,1027,Wunderground v.1.15,2013-05-06 17:40:00,
2013-05-06 13:50:00,72.8,41.2,30.08,ESE,122,5.0,5.0,32,0.00,,,0.00,1020,Wunderground v.1.15,2013-05-06 17:50:00,
2013-05-06 14:00:00,72.7,41.9,30.07,South,170,6.0,6.0,33,0.00,,,0.00,1014,Wunderground v.1.15,2013-05-06 18:00:00,
2013-05-06 14:10:00,73.0,40.6,30.07,South,180,4.0,5.0,31,0.00,,,0.00,1005,Wunderground v.1.15,2013-05-06 18:10:00,
2013-05-06 14:20:00,73.9,36.8,30.07,ESE,121,4.0,5.0,26,0.00,,,0.00,995,Wunderground v.1.15,2013-05-06 18:20:00,
2013-05-06 14:30:00,74.1,39.8,30.06,East,101,4.0,7.0,29,0.00,,,0.00,977,Wunderground v.1.15,2013-05-06 18:30:00,
2013-05-06 14:40:00,74.3,38.1,30.06,South,173,5.0,6.0,27,0.00,,,0.00,962,Wunderground v.1.15,2013-05-06 18:40:00,
2013-05-06 14:50:00,74.2,34.0,30.06,East,98,5.0,5.0,23,0.00,,,0.00,944,Wunderground v.1.15,2013-05-06 18:50:00,
2013-05-06 15:00:00,75.1,38.8,30.05,East,95,4.0,6.0,27,0.00,,,0.00,925,Wunderground v.1.15,2013-05-06 19:00:00,
2013-05-06 15:09:00,74.9,34.6,30.05,SSW,192,5.0,8.0,23,0.00,,,0.00,907,Wunderground v.1.15,2013-05-06 19:09:00,
2013-05-06 15:20:00,75.5,37.2,30.05,East,86,5.0,8.0,25,0.00,,,0.00,882,Wunderground v.1.15,2013-05-06 19:20:00,
2013-05-06 15:30:00,75.3,34.9,30.04,SSE,167,5.0,5.0,23,0.00,,,0.00,858,Wunderground v.1.15,2013-05-06 19:30:00,
2013-05-06 15:40:00,75.8,36.4,30.04,East,92,4.0,4.0,24,0.00,,,0.00,835,Wunderground v.1.15,2013-05-06 19:40:00,
2013-05-06 15:50:00,76.0,36.6,30.03,SE,133,6.0,9.0,24,0.00,,,0.00,810,Wunderground v.1.15,2013-05-06 19:50:00,
2013-05-06 16:00:00,75.7,35.3,30.03,South,184,7.0,7.0,23,0.00,,,0.00,782,Wunderground v.1.15,2013-05-06 20:00:00,
2013-05-06 16:10:00,76.2,34.6,30.02,SE,146,4.0,13.0,22,0.00,,,0.00,758,Wunderground v.1.15,2013-05-06 20:10:00,
2013-05-06 16:20:00,75.9,34.3,30.02,East,86,7.0,8.0,22,0.00,,,0.00,721,Wunderground v.1.15,2013-05-06 20:20:00,
2013-05-06 16:30:00,76.3,36.8,30.02,ESE,108,7.0,7.0,24,0.00,,,0.00,696,Wunderground v.1.15,2013-05-06 20:30:00,
2013-05-06 16:40:00,76.2,37.8,30.01,SSE,166,6.0,6.0,25,0.00,,,0.00,664,Wunderground v.1.15,2013-05-06 20:40:00,
2013-05-06 16:50:00,76.5,34.8,30.01,South,175,4.0,4.0,22,0.00,,,0.00,633,Wunderground v.1.15,2013-05-06 20:50:00,
2013-05-06 17:00:00,75.1,47.0,30.01,NNE,28,4.0,8.0,37,0.00,,,0.00,599,Wunderground v.1.15,2013-05-06 21:00:00,
2013-05-06 17:10:00,73.9,45.3,30.01,NE,52,7.0,12.0,36,0.00,,,0.00,563,Wunderground v.1.15,2013-05-06 21:10:00,
2013-05-06 17:20:00,74.0,47.5,30.00,NE,46,7.0,9.0,39,0.00,,,0.00,540,Wunderground v.1.15,2013-05-06 21:20:00,
2013-05-06 17:30:00,74.2,44.8,30.01,NE,55,6.0,9.0,35,0.00,,,0.00,508,Wunderground v.1.15,2013-05-06 21:30:00,
2013-05-06 17:40:00,74.3,45.6,30.00,NE,55,7.0,7.0,36,0.00,,,0.00,461,Wunderground v.1.15,2013-05-06 21:40:00,
2013-05-06 17:50:00,73.6,45.7,30.00,NE,35,8.0,8.0,37,0.00,,,0.00,394,Wunderground v.1.15,2013-05-06 21:50:00,
2013-05-06 18:00:00,72.8,46.4,30.00,NE,46,7.0,7.0,39,0.00,,,0.00,346,Wunderground v.1.15,2013-05-06 22:00:00,
2013-05-06 18:10:00,72.4,43.9,30.00,NE,42,8.0,8.0,36,0.00,,,0.00,360,Wunderground v.1.15,2013-05-06 22:10:00,
2013-05-06 18:20:00,71.9,44.2,30.00,ENE,57,8.0,11.0,37,0.00,,,0.00,325,Wunderground v.1.15,2013-05-06 22:20:00,
2013-05-06 18:30:00,71.4,43.8,30.00,NE,55,8.0,8.0,37,0.00,,,0.00,306,Wunderground v.1.15,2013-05-06 22:30:00,
2013-05-06 18:40:00,71.2,43.6,30.00,NE,40,7.0,7.0,37,0.00,,,0.00,264,Wunderground v.1.15,2013-05-06 22:40:00,
2013-05-06 18:59:00,70.3,43.5,30.00,NE,47,7.0,9.0,38,0.00,,,0.00,192,Wunderground v.1.15,2013-05-06 22:59:00,
2013-05-06 19:09:00,69.5,42.8,30.00,ENE,66,8.0,9.0,38,0.00,,,0.00,148,Wunderground v.1.15,2013-05-06 23:09:00,
2013-05-06 19:20:00,68.6,42.6,30.00,ENE,61,6.0,6.0,39,0.00,,,0.00,97,Wunderground v.1.15,2013-05-06 23:20:00,
2013-05-06 19:30:00,67.8,43.2,30.00,NE,50,6.0,6.0,41,0.00,,,0.00,51,Wunderground v.1.15,2013-05-06 23:30:00,
2013-05-06 19:40:00,67.0,43.1,30.00,NE,45,5.0,5.0,42,0.00,,,0.00,28,Wunderground v.1.15,2013-05-06 23:40:00,
2013-05-06 19:50:00,65.8,42.7,30.00,NE,36,4.0,4.0,43,0.00,,,0.00,21,Wunderground v.1.15,2013-05-06 23:50:00,
2013-05-06 20:00:00,64.7,42.3,30.00,NE,47,4.0,4.0,44,0.00,,,0.00,14,Wunderground v.1.15,2013-05-07 00:00:00,
2013-05-06 20:10:00,64.0,42.2,30.00,NE,49,3.0,3.0,45,0.00,,,0.00,5,Wunderground v.1.15,2013-05-07 00:10:00,
2013-05-06 20:20:00,63.3,41.6,30.00,NE,49,3.0,3.0,45,0.00,,,0.00,0,Wunderground v.1.15,2013-05-07 00:20:00,
2013-05-06 20:30:00,62.2,41.7,30.01,NE,46,2.0,3.0,47,0.00,,,0.00,0,Wunderground v.1.15,2013-05-07 00:30:00,
2013-05-06 20:40:00,61.3,41.4,30.01,NE,46,3.0,3.0,48,0.00,,,0.00,0,Wunderground v.1.15,2013-05-07 00:40:00,
2013-05-06 20:50:00,60.8,41.0,30.01,NE,47,3.0,3.0,48,0.00,,,0.00,0,Wunderground v.1.15,2013-05-07 00:50:00,
2013-05-06 21:00:00,59.8,40.6,30.02,NE,47,2.0,3.0,49,0.00,,,0.00,0,Wunderground v.1.15,2013-05-07 01:00:00,
2013-05-06 21:10:00,59.3,40.1,30.02,ENE,59,2.0,3.0,49,0.00,,,0.00,0,Wunderground v.1.15,2013-05-07 01:10:00,
2013-05-06 21:20:00,59.0,39.9,30.02,ENE,57,1.0,2.0,49,0.00,,,0.00,0,Wunderground v.1.15,2013-05-07 01:20:00,
2013-05-06 21:30:00,58.8,40.2,30.03,ENE,57,0.0,0.0,50,0.00,,,0.00,0,Wunderground v.1.15,2013-05-07 01:30:00,
2013-05-06 21:40:00,59.1,39.9,30.03,ENE,64,0.0,0.0,49,0.00,,,0.00,0,Wunderground v.1.15,2013-05-07 01:40:00,
2013-05-06 21:50:00,58.1,41.0,30.03,ENE,64,0.0,0.0,53,0.00,,,0.00,0,Wunderground v.1.15,2013-05-07 01:50:00,
2013-05-06 21:59:00,58.1,41.5,30.03,East,90,0.0,0.0,54,0.00,,,0.00,0,Wunderground v.1.15,2013-05-07 01:59:00,
2013-05-06 22:10:00,56.8,41.3,30.03,East,90,0.0,0.0,56,0.00,,,0.00,0,Wunderground v.1.15,2013-05-07 02:10:00,
2013-05-06 22:20:00,55.8,42.1,30.04,East,90,0.0,0.0,60,0.00,,,0.00,0,Wunderground v.1.15,2013-05-07 02:20:00,
2013-05-06 22:30:00,55.6,44.0,30.04,East,90,0.0,0.0,65,0.00,,,0.00,0,Wunderground v.1.15,2013-05-07 02:30:00,
2013-05-06 22:40:00,54.8,44.4,30.04,East,90,0.0,0.0,68,0.00,,,0.00,0,Wunderground v.1.15,2013-05-07 02:40:00,
2013-05-06 22:50:00,54.8,44.4,30.04,East,90,0.0,0.0,68,0.00,,,0.00,0,Wunderground v.1.15,2013-05-07 02:50:00,
2013-05-06 23:00:00,54.5,44.5,30.04,East,90,0.0,0.0,69,0.00,,,0.00,0,Wunderground v.1.15,2013-05-07 03:00:00,
2013-05-06 23:10:00,54.7,43.6,30.04,East,90,0.0,0.0,66,0.00,,,0.00,0,Wunderground v.1.15,2013-05-07 03:10:00,
2013-05-06 23:20:00,53.7,44.1,30.04,SE,128,0.0,0.0,70,0.00,,,0.00,0,Wunderground v.1.15,2013-05-07 03:20:00,
2013-05-06 23:30:00,53.4,45.0,30.04,SE,128,0.0,0.0,73,0.00,,,0.00,0,Wunderground v.1.15,2013-05-07 03:30:00,
2013-05-06 23:40:00,55.0,44.2,30.03,SE,128,0.0,0.0,67,0.00,,,0.00,0,Wunderground v.1.15,2013-05-07 03:40:00,
2013-05-06 23:50:00,54.2,45.0,30.04,SE,128,0.0,0.0,71,0.00,,,0.00,0,Wunderground v.1.15,2013-05-07 03:50:00,